#timestamp,LO_Frequency,Hit,StdDev 
1509188415.2,286046987.6,N
1509188435.1,286046987.5,N
1509188436.0,286046987.5,N
1509188455.8,286046988.7,N
1509188475.6,286046989.1,N
1509188495.5,286046991.6,N
1509188515.3,286046987.0,N
1509188535.1,286046990.4,N
1509188555.9,286046992.7,N
1509188575.7,286046991.4,N
1509188595.5,286046993.2,N
1509188615.4,286046989.9,N
1509188635.2,286046985.7,Y
1509188655.0,286046994.7,P
1509188656.0,286046994.7,P
1509188675.8,286046988.6,P
1509188695.6,286046994.1,N
1509188715.5,286046993.4,N
1509188735.3,286046996.0,N
1509188755.1,286046992.2,Y
1509188775.9,286046998.1,P
1509188795.7,286047002.7,N
1509188815.5,286047002.6,N
1509188835.4,286047002.7,N
1509188855.2,286047001.5,N
1509188875.0,286046998.2,N
1509188875.9,286046998.2,N
1509188895.8,286047002.3,N
1509188915.6,286047001.9,N
1509188935.4,286047005.3,N
1509188955.3,286047003.0,N
1509188975.1,286047002.5,N
1509188995.8,286047000.0,N
1509189015.7,286046999.0,N
1509189035.5,286046998.8,N
1509189055.3,286047000.7,N
1509189075.2,286046998.6,N
1509189095.0,286047000.5,N
1509189095.9,286047000.5,N
1509189115.8,286047000.3,N
1509189135.6,286047002.4,N
1509189155.4,286047000.6,N
1509189175.3,286046998.2,N
1509189195.1,286047000.3,N
1509189196.0,286047000.3,N
1509189215.8,286047004.0,N
1509189235.7,286047002.9,N
1509189255.5,286047002.6,N
1509189275.3,286047004.6,N
1509189295.2,286047004.2,N
1509189315.9,286047004.1,N
1509189335.7,286047003.4,N
1509189355.6,286047002.6,N
1509189375.4,286047003.4,N
1509189395.2,286047003.0,N
1509189415.1,286047002.4,N
1509189416.0,286047002.4,N
1509189435.8,286047001.6,N
1509189455.6,286047007.5,Y
1509189475.5,286047005.8,P
1509189495.3,286047000.6,N
1509189515.2,286047001.0,N
1509189535.9,286047002.5,N
1509189555.7,286047001.9,N
1509189575.6,286047003.9,N
1509189595.4,286046999.8,N
1509189615.2,286047002.4,N
1509189635.1,286047004.4,N
1509189636.0,286047004.4,N
1509189655.8,286047001.9,N
1509189675.6,286046996.7,N
1509189695.5,286046995.8,N
1509189715.3,286046994.6,N
1509189735.1,286046990.3,Y
1509189755.9,286046990.6,P
1509189775.7,286046990.5,N
1509189795.5,286046990.2,N
1509189815.4,286046993.1,N
1509189835.2,286046988.6,N
1509189855.0,286046991.6,N
1509189855.9,286046991.6,N
1509189875.8,286046990.3,N
1509189895.6,286046987.6,Y
1509189915.5,286046995.4,P
1509189935.3,286046995.8,N
1509189955.1,286046995.8,N
1509189975.9,286046997.4,N
1509189995.7,286047000.7,N
1509190015.5,286046996.5,N
1509190035.4,286047003.1,N
1509190055.2,286047001.0,N
1509190075.0,286046998.2,N
1509190075.9,286046998.2,N
1509190095.8,286047002.8,N
1509190115.6,286046999.4,N
1509190135.4,286046996.3,N
1509190155.3,286046994.0,N
1509190175.1,286046993.4,N
1509190195.8,286046999.5,N
1509190215.7,286047002.8,N
1509190235.5,286047002.8,N
1509190255.3,286047001.3,N
1509190275.2,286047003.6,N
1509190295.0,286047000.2,N
1509190295.9,286047000.2,N
1509190315.7,286047004.4,N
1509190335.6,286047003.5,N
1509190355.4,286047000.3,N
1509190375.2,286047003.7,N
1509190395.1,286047002.5,N
1509190396.0,286047002.5,N
1509190415.8,286046998.4,N
1509190435.7,286046998.3,N
1509190455.5,286047004.3,N
1509190475.3,286047004.8,N
1509190495.2,286047004.4,N
1509190515.9,286047005.8,N
1509190535.7,286047007.0,N
1509190555.6,286047003.2,N
1509190575.4,286047001.6,N
1509190595.2,286046999.5,N
1509190615.1,286046998.4,N
1509190616.0,286046998.4,N
1509190635.8,286047002.8,N
1509190655.6,286047002.3,N
1509190675.5,286047002.6,N
1509190695.3,286047001.1,N
1509190715.1,286047000.1,N
1509190735.9,286047002.2,N
1509190755.7,286047003.7,N
1509190775.5,286047000.1,N
1509190795.4,286047002.2,N
1509190815.2,286047001.3,N
1509190835.0,286047003.7,N
1509190836.0,286047003.7,N
1509190855.8,286047002.9,N
1509190875.6,286046998.9,N
1509190895.5,286047005.9,N
1509190915.3,286047002.3,N
1509190935.1,286047002.1,N
1509190955.9,286047002.4,N
1509190975.7,286046999.7,N
1509190995.5,286047001.4,N
1509191015.4,286047005.0,N
1509191035.2,286047007.1,Y
1509191055.0,286047002.5,P
1509191055.9,286047002.5,P
1509191075.8,286047004.2,P
1509191095.6,286047003.2,Y
1509191115.5,286046999.8,P
1509191135.3,286046999.8,N
1509191155.1,286047000.5,N
1509191175.9,286047001.2,N
1509191195.7,286046998.2,N
1509191215.5,286046998.9,N
1509191235.4,286046997.0,N
1509191255.2,286046996.7,N
1509191275.0,286047001.1,N
1509191275.9,286047001.1,N
1509191295.8,286047002.3,N
1509191315.6,286046998.5,N
1509191335.4,286046998.8,N
1509191355.3,286046998.2,N
1509191375.1,286046999.2,N
1509191395.8,286046996.2,N
1509191415.7,286046999.6,N
1509191435.5,286046998.7,N
1509191455.3,286047001.0,N
1509191475.2,286047002.1,N
1509191495.0,286047006.7,Y
1509191495.9,286047006.7,P
1509191515.8,286046998.2,N
1509191535.6,286046996.2,N
1509191555.4,286046993.7,N
1509191575.3,286046990.2,N
1509191595.1,286046994.1,N
1509191596.0,286046994.1,N
1509191615.8,286046992.6,N
1509191635.7,286046992.4,N
1509191655.5,286046995.6,N
1509191675.3,286047000.8,N
1509191695.2,286046997.1,N
1509191715.9,286046993.5,N
1509191735.7,286046995.9,N
1509191755.6,286046996.2,N
1509191775.4,286046997.9,N
1509191795.2,286046999.4,N
1509191815.1,286046997.5,N
1509191816.0,286046997.5,N
1509191835.8,286046993.6,N
1509191855.6,286046991.8,N
1509191875.5,286046996.4,N
1509191895.3,286046999.0,N
1509191915.1,286046997.1,N
1509191935.9,286046999.3,N
1509191955.7,286047002.6,N
1509191975.6,286047002.5,N
1509191995.4,286047001.8,N
